Lincoln, NE

5:03 AM CST on February 21, 2017 (GMT -0600)
Lincoln Municipal

Weather History for KLNK - December, 2011

Change the Weather History Date:

Wednesday, December 21, 2011

  Actual Average Record
Temperature  
Mean Temperature 34 °F 25 °F  
Max Temperature 47 °F 36 °F 62 °F (1941)
Min Temperature 21 °F 15 °F -19 °F (1989)
Degree Days  
Heating Degree Days 31 40  
Month to date heating degree days 803 783  
Since 1 July heating degree days 2027 2044  
Cooling Degree Days 0 0  
Month to date cooling degree days 0 0  
Year to date cooling degree days 1296 1173  
Moisture  
Dew Point 25 °F    
Average Humidity 73    
Maximum Humidity 92    
Minimum Humidity 53    
Precipitation  
Precipitation 0.00 in 0.03 in 0.39 in (1920)
Month to date precipitation 1.56 0.69  
Year to date precipitation 29.15 28.69  
Snow  
Snow 0.00 in 0.20 in - ()
Month to date snowfall 4.6 4.0  
Since 1 July snowfall 4.6 6.8  
Snow Depth 0.00 in    
Sea Level Pressure  
Sea Level Pressure 29.83 in    
Wind  
Wind Speed 9 mph (WSW)    
Max Wind Speed 16 mph    
Max Gust Speed 21 mph    
Visibility 10 miles    
Events      
T = Trace of Precipitation, MM = Missing Value Source: NWS Daily Summary

Daily Weather History Graph

Daily Weather History Graph

Search for Another Location

Airport or City:

Trip Planner

Search our weather history database for the weather conditions in past years. The results will help you decide how hot, cold, wet, or windy it might be!

Date:

Astronomy

Dec. 21, 2011 Rise Set
Actual Time 7:47 AM CST 5:02 PM CST
Civil Twilight 7:16 AM CST 5:33 PM CST
Nautical Twilight 6:42 AM CST 6:07 PM CST
Astronomical Twilight 6:08 AM CST 6:41 PM CST
Moon 4:21 AM CST 2:22 PM CST
Length of Visible Light 10h 16m
Length of Day
9h 14m
Waning Crescent, 12% of the Moon is Illuminated
Dec 21
Waning Crescent
Dec 24
New
Jan 1
First Quarter
Jan 9
Full
Jan 16
Last Quarter

Hourly Weather History & Observations

Time (CST) Temp. Windchill Dew Point Humidity Pressure Visibility Wind Dir Wind Speed Gust Speed Precip Events Conditions
12:54 AM 24.1 °F 19.7 °F 23.0 °F 96% 29.81 in 9.0 mi South 3.5 mph - N/A   Clear
1:54 AM 25.0 °F 17.1 °F 21.9 °F 88% 29.78 in 10.0 mi SSE 6.9 mph - N/A   Clear
2:54 AM 23.0 °F 14.7 °F 19.9 °F 88% 29.77 in 10.0 mi South 6.9 mph - N/A   Clear
3:54 AM 21.9 °F 13.4 °F 19.0 °F 89% 29.74 in 10.0 mi South 6.9 mph - N/A   Clear
4:54 AM 21.9 °F 13.4 °F 18.0 °F 85% 29.74 in 10.0 mi South 6.9 mph - N/A   Clear
5:54 AM 23.0 °F 15.8 °F 19.0 °F 85% 29.74 in 10.0 mi South 5.8 mph - N/A   Clear
6:54 AM 25.0 °F 15.5 °F 21.0 °F 85% 29.75 in 10.0 mi South 9.2 mph - N/A   Clear
7:54 AM 24.1 °F 16.0 °F 19.9 °F 84% 29.77 in 10.0 mi SSW 6.9 mph - N/A   Clear
8:54 AM 26.1 °F 18.4 °F 21.0 °F 81% 29.77 in 10.0 mi WSW 6.9 mph - N/A   Clear
9:54 AM 30.0 °F 21.7 °F 23.0 °F 75% 29.79 in 10.0 mi West 9.2 mph - N/A   Clear
10:54 AM 34.0 °F 28.0 °F 25.0 °F 70% 29.81 in 10.0 mi WSW 6.9 mph - N/A   Clear
11:54 AM 39.9 °F 33.4 °F 26.1 °F 58% 29.79 in 10.0 mi West 10.4 mph - N/A   Clear
12:54 PM 42.1 °F 37.7 °F 28.0 °F 58% 29.76 in 10.0 mi WSW 6.9 mph - N/A   Clear
1:54 PM 44.1 °F 38.6 °F 28.9 °F 55% 29.77 in 10.0 mi SW 10.4 mph - N/A   Clear
2:54 PM 46.0 °F 42.5 °F 30.0 °F 54% 29.78 in 10.0 mi West 6.9 mph - N/A   Clear
3:54 PM 46.9 °F - 30.0 °F 52% 29.81 in 10.0 mi WNW 9.2 mph - N/A   Clear
4:54 PM 44.1 °F 40.8 °F 30.0 °F 58% 29.82 in 10.0 mi NW 5.8 mph - N/A   Clear
5:54 PM 39.9 °F 34.5 °F 28.9 °F 65% 29.85 in 10.0 mi NW 8.1 mph - N/A   Clear
6:54 PM 30.9 °F 23.5 °F 26.1 °F 82% 29.89 in 10.0 mi North 8.1 mph - N/A   Clear
7:54 PM 32.0 °F 24.8 °F 27.0 °F 82% 29.93 in 10.0 mi North 8.1 mph - N/A   Overcast
8:54 PM 33.8 °F 24.8 °F 24.8 °F 70% 29.92 in 10.0 mi North 12.7 mph - N/A   Partly Cloudy
9:54 PM 34.0 °F 28.0 °F 26.1 °F 73% 30.00 in 10.0 mi North 6.9 mph - N/A   Overcast
10:54 PM 35.1 °F 26.4 °F 28.9 °F 78% 30.02 in 10.0 mi North 12.7 mph - N/A   Overcast
11:54 PM 35.1 °F 25.9 °F 30.9 °F 85% 30.05 in 10.0 mi NNE 13.8 mph - N/A   Overcast